SCP
0 0 -0 -0 0 0 0 0 -0 0 0 0 0 0 0 0 0 -0 0 -0 -0 0 0 0 0 0 0 0 0 0 0 1 1 1 1 1 1 0 0 0 0 0 0 0
0 0 -0 0 0 0 0 0 0 0 0 0 0 0 0 0 0 0 0 0 0 0 0 0 0 0 0 0 0 0 0 0 0 0 0 0 0 0 0 0 0 0 0 0
0 0 0 -0 0 0 0 0 0 0 0 0 0 0 0 0 0 0 0 1 0 0 0 0 0 0 0 0 0 0 0 0 0 0 0 0 0 0 0 0 0 0 0 0
-0 -0 -0 0 0 0 0 0 0 0 0 0 0 0 0 0 0 0 0 1 0 0 0 0 0 0 0 0 0 0 0 0 0 0 0 0 0 0 0 0 0 0 0 -0
0 -0 0 0 0 0 0 0 0 -0 0 0 0 0 0 0 0 0 0 1 0 0 0 0 0 0 0 0 0 0 0 0 0 0 0 0 0 0 0 0 0 0 -0 -0
0 0 0 0 -0 -0 0 0 0 0 0 0 -0 0 -0 0 0 0 0 1 0 0 0 0 0 0 0 0 0 0 0 0 0 0 0 0 0 0 0 0 0 -0 -0 -0
0 0 0 0 0 0 0 0 0 0 0 0 -0 0 -0 0 0 0 0 1 0 0 0 0 0 0 0 0 0 0 0 0 0 0 0 0 0 0 0 0 0 0 0 0
-0 0 0 0 0 0 0 0 0 0 0 0 0 0 0 0 0 0 0 0 0 0 0 0 0 0 0 0 0 0 0 0 0 0 0 0 0 0 0 0 0 0 0 0
0 0 0 0 0 0 0 0 0 0 0 0 -0 0 0 0 0 0 0 0 1 0 0 0 0 0 0 0 0 0 0 0 0 0 0 0 0 0 0 0 0 0 0 0
0 0 -0 0 0 0 0 0 0 0 0 0 0 0 0 0 0 0 0 0 0 0 0 0 0 0 0 0 0 0 0 0 0 0 0 0 0 0 0 0 0 0 0 0
0 0 -0 0 0 0 0 0 0 0 0 0 0 0 -0 0 0 0 0 0 0 0 0 0 0 0 0 0 0 0 0 0 0 0 0 0 0 0 0 0 0 0 0 0
0 0 0 -0 -0 0 0 0 0 0 0 0 0 0 0 0 0 0 0 0 0 0 0 0 0 0 0 0 0 0 0 0 0 0 0 0 0 0 0 0 0 0 0 0
0 0 0 0 0 -0 0 0 0 0 0 0 0 0 0 0 0 0 0 0 0 0 0 0 0 0 0 0 0 0 0 0 0 0 0 0 0 0 0 0 0 0 0 0
0 0 0 0 0 0 0 0 0 0 0 0 0 0 0 0 0 0 0 0 0 0 0 0 0 0 0 0 0 0 0 0 0 0 0 0 0 0 0 0 0 0 0 0
0 0 0 0 0 0 0 -0 0 0 0 0 0 0 0 0 0 0 0 0 0 0 0 0 0 0 0 0 0 0 0 0 0 0 0 0 0 0 0 0 0 0 0 0
0 0 0 0 0 0 0 0 0 -0 -0 0 0 0 0 0 0 0 0 0 0 0 0 0 0 0 0 0 0 0 0 0 0 0 0 0 0 0 0 0 0 0 0 0
0 0 0 0 0 0 0 0 0 0 0 0 0 0 0 0 0 0 0 0 1 0 0 0 0 0 0 0 0 0 0 0 0 0 0 0 0 0 0 0 0 0 0 0
0 0 0 0 0 0 0 0 0 0 0 0 0 0 0 0 0 0 0 0 0 0 0 0 0 0 0 0 0 0 0 0 0 0 0 0 0 0 0 0 0 0 0 0
0 0 1 0 0 0 0 0 0 0 0 0 0 0 0 0 0 0 0 0 0 0 0 0 0 0 0 0 0 0 0 0 0 0 0 0 0 0 0 0 0 0 0 0
0 0 0 0 0 0 0 0 0 0 0 0 0 0 0 0 0 0 0 0 0 0 0 0 0 0 0 0 0 0 0 0 0 0 0 0 0 0 0 0 0 0 0 0
0 0 0 0 0 0 0 0 0 0 0 0 0 0 0 0 0 0 0 0 0 0 0 0 0 0 0 0 0 0 0 0 0 0 0 0 0 0 0 0 0 0 0 0
0 0 0 0 0 0 0 0 0 0 0 0 0 0 0 0 0 0 0 0 0 0 0 0 0 0 0 0 0 0 0 0 0 0 0 0 0 0 0 0 0 0 0 0
0 0 0 0 0 0 0 0 0 0 0 0 0 0 0 0 0 0 0 0 0 0 0 0 0 0 0 0 0 0 0 0 0 0 0 0 0 0 0 0 0 0 0 0
0 0 0 0 0 0 0 0 0 0 0 0 0 0 0 0 0 0 0 0 0 0 0 0 0 0 0 0 0 0 0 0 0 0 0 0 0 0 0 0 0 0 0 0
0 0 0 0 0 0 0 0 0 0 0 0 0 0 0 0 0 0 0 0 0 0 0 0 0 0 0 0 0 0 0 0 0 0 0 0 0 0 0 0 0 0 0 0
0 0 0 0 0 0 0 0 0 0 0 0 0 0 0 0 0 0 0 0 0 0 0 0 0 0 0 0 0 0 0 0 0 0 0 0 0 0 0 0 0 0 0 0
Wind_Speed_500mb
29 4 12 25 22 22 14 14 18 3 13 15 15 35 34 51 56 56 63 66 59 53 47 30 22 20 18 17 21 21 27 27 23 24 18 12 11 4 9 13 18 22 22 21
11 18 26 22 22 22 20 16 13 6 13 12 10 6 21 36 42 69 67 72 73 65 50 39 26 17 14 16 20 27 29 27 23 19 20 20 12 12 9 19 27 27 29 28
19 24 29 25 21 21 13 6 13 7 7 8 9 8 14 25 53 57 70 79 85 74 61 43 33 23 14 14 17 26 30 25 27 32 34 30 27 17 4 16 21 27 30 32
17 40 23 10 7 9 11 14 17 21 5 4 11 9 15 18 26 24 44 67 79 69 56 49 39 27 19 16 17 26 30 27 24 24 27 23 18 10 4 12 17 24 30 35
20 15 9 2 10 13 18 14 7 17 1 9 18 6 17 11 14 20 36 64 81 69 64 56 46 36 28 22 22 27 29 28 29 28 22 16 15 14 12 20 13 17 27 32
28 31 8 13 14 9 7 13 15 12 8 9 16 8 23 12 18 16 30 71 80 79 66 56 46 42 34 24 26 31 32 33 30 27 26 17 14 16 16 18 13 7 18 24
18 14 5 8 6 8 16 14 8 8 5 14 19 9 33 2 17 10 30 64 78 81 70 64 60 51 40 37 26 34 34 32 29 26 25 23 20 17 12 14 16 7 9 19
10 16 19 16 14 10 7 16 10 10 6 8 16 10 4 18 39 45 26 51 72 78 72 69 65 55 50 42 28 33 32 27 24 23 23 21 17 16 12 5 8 5 4 11
7 13 25 21 11 8 12 6 17 2 8 7 6 6 14 19 19 30 29 39 65 63 67 68 62 54 53 45 33 30 27 22 17 15 14 14 15 10 2 11 5 6 14 18
14 6 11 10 13 4 6 2 10 8 2 8 10 9 7 11 15 16 19 18 48 65 71 70 64 54 53 49 38 29 23 21 16 11 8 12 13 11 4 7 13 15 17 22
8 11 18 10 5 9 8 4 1 8 8 6 2 10 12 11 17 19 28 36 47 61 66 69 64 59 61 57 52 42 35 31 25 16 9 8 2 2 4 12 10 14 23 32
18 12 9 14 12 7 17 19 16 10 14 6 9 12 6 16 22 36 30 36 41 42 45 58 65 66 66 58 46 33 41 35 25 17 18 17 14 19 18 18 20 24 31 38
6 3 3 15 15 13 6 7 11 7 9 11 8 11 9 16 14 28 30 36 46 48 46 46 61 70 59 51 51 42 40 35 28 27 27 27 29 29 26 24 24 27 33 29
12 4 12 14 15 11 8 12 5 3 5 10 13 15 15 12 17 23 26 18 21 48 49 42 65 64 56 50 51 49 41 48 42 46 47 40 32 24 22 18 20 20 27 31
12 7 3 10 14 20 25 21 19 25 19 17 21 17 16 15 16 34 41 37 27 46 44 39 54 57 48 43 48 52 40 33 32 37 32 30 21 15 9 14 25 25 24 26
1 8 12 10 17 25 34 34 31 39 25 23 31 20 21 33 12 23 44 44 36 60 56 51 44 37 43 45 44 37 37 31 25 20 13 4 4 13 15 17 19 18 27 37
6 8 4 9 14 22 35 25 30 34 22 7 9 11 8 13 5 33 36 42 72 69 64 67 62 55 50 48 46 39 31 24 12 6 11 12 7 5 12 15 22 25 33 36
11 10 10 8 8 27 10 8 14 16 19 10 9 2 5 8 21 35 40 64 76 71 65 62 56 49 46 41 33 28 21 19 15 17 16 8 8 7 16 19 30 39 35 29
12 10 8 12 15 34 21 9 13 7 28 11 5 3 10 27 31 23 40 59 71 66 61 64 60 55 48 37 34 31 30 25 23 18 16 6 4 9 17 29 25 27 29 25
18 10 9 6 13 40 4 14 25 13 24 10 13 8 17 22 9 8 64 71 68 62 67 69 62 54 44 43 31 20 19 21 23 15 10 5 10 16 23 24 19 19 19 21
9 13 20 20 15 26 9 0 25 15 14 9 8 3 9 9 20 69 77 74 73 70 66 60 52 44 34 34 27 25 22 24 15 10 9 5 14 11 13 19 13 19 19 24
18 9 13 4 6 30 8 12 10 4 30 22 22 16 34 49 73 86 83 79 72 65 55 46 45 40 32 25 28 27 28 21 14 12 7 5 8 11 8 15 17 14 25 23
21 13 11 21 18 25 44 29 57 28 25 34 22 27 50 75 84 84 80 75 68 56 54 47 44 34 26 31 28 29 22 16 15 10 2 3 4 9 10 9 14 13 25 35
11 19 2 7 9 15 32 47 29 33 17 18 35 19 57 80 87 83 80 74 67 57 50 43 33 25 31 29 27 26 24 19 14 10 2 8 2 5 11 6 4 13 18 23
10 18 9 9 10 14 28 31 15 13 19 9 14 47 44 83 82 87 83 76 67 64 49 34 28 36 38 26 21 16 15 13 13 12 6 11 9 2 2 4 9 14 20 20
11 7 4 7 15 16 18 19 23 24 26 27 24 8 36 68 80 83 76 70 70 62 52 43 41 39 27 22 21 21 17 12 8 16 16 11 15 5 6 5 9 12 16 24
Wind_Direction_500mb
250 195 238 241 246 243 269 279 270 356 116 135 153 146 172 173 164 162 166 160 160 165 162 166 169 193 196 183 178 167 163 167 180 181 181 144 109 59 29 2 12 7 5 360
298 224 237 237 250 254 267 276 291 39 117 107 95 135 197 178 177 173 171 165 162 155 157 168 182 201 201 182 174 162 165 170 173 181 157 136 109 80 19 12 12 23 18 18
215 244 229 242 258 261 270 298 298 240 125 94 118 311 264 188 187 185 180 170 167 165 159 162 165 180 208 193 178 167 168 166 143 135 130 146 138 136 63 357 18 25 19 20
233 246 263 152 316 347 321 292 317 288 62 211 118 259 275 199 193 183 181 155 159 159 163 165 172 179 195 201 179 163 165 165 151 140 147 157 164 187 137 61 40 20 12 17
261 250 174 153 263 262 249 255 328 256 178 55 305 86 263 245 189 190 176 151 160 166 166 167 173 179 190 207 191 166 157 153 143 150 154 148 140 116 110 93 73 7 358 6
288 277 223 182 235 223 78 42 358 18 61 6 254 195 277 247 195 155 161 149 161 166 166 167 172 174 180 199 183 169 159 153 146 145 147 145 105 100 110 124 110 10 342 355
286 263 294 291 2 112 84 57 353 348 355 229 263 238 237 175 104 149 166 151 157 164 163 163 170 173 179 189 190 172 165 157 149 139 131 129 131 139 118 117 157 170 317 345
266 292 197 201 177 182 182 150 161 223 225 257 337 291 289 88 71 62 158 171 151 162 165 170 172 173 180 192 197 185 176 168 154 142 138 135 126 136 150 158 153 149 296 336
277 290 321 188 135 151 263 176 211 180 274 39 247 21 27 73 80 83 77 110 151 164 170 172 173 175 182 194 206 203 192 179 169 151 146 154 158 188 176 134 105 317 338 353
231 313 316 114 136 188 107 247 22 357 162 280 283 285 178 115 130 121 127 139 167 170 175 176 176 180 185 196 198 206 211 195 193 183 161 149 176 203 302 357 353 355 342 325
153 119 285 14 133 167 324 285 241 152 147 174 314 280 200 161 167 162 171 171 162 166 175 179 182 185 186 193 199 207 206 215 208 206 196 214 286 105 298 309 298 309 315 310
185 152 221 228 287 308 204 205 179 138 274 226 180 258 146 155 171 163 172 169 176 178 177 188 186 183 186 193 201 214 208 214 211 218 215 219 214 209 236 260 283 288 299 307
7 164 131 330 340 331 241 231 203 163 130 199 195 256 225 170 138 168 179 180 187 190 189 193 187 185 186 190 195 194 191 206 229 216 201 188 192 208 225 253 274 296 309 317
71 30 152 192 211 229 275 266 297 196 152 235 232 249 273 237 186 196 166 172 158 192 191 190 174 176 183 185 180 191 187 203 199 203 198 200 204 216 241 263 298 321 334 331
118 186 270 266 271 277 274 272 268 238 219 233 255 245 233 241 220 214 186 176 156 156 159 154 149 158 164 166 162 166 184 200 189 177 179 184 196 226 272 332 346 337 347 342
258 230 199 257 268 273 274 283 284 283 278 227 235 246 243 256 280 218 180 179 146 118 116 122 123 137 147 153 164 172 160 174 178 187 191 186 359 9 4 339 334 336 325 326
201 166 179 249 234 263 257 235 252 272 278 251 265 247 59 21 147 140 132 134 121 125 127 121 118 123 124 134 147 151 154 159 177 170 114 115 68 313 326 323 322 327 332 332
209 187 176 220 235 253 211 217 275 269 280 240 257 247 61 30 117 135 144 140 129 131 131 129 128 126 132 138 139 153 153 141 137 122 136 163 255 299 309 310 324 328 339 338
185 193 214 215 225 256 262 279 236 232 282 249 181 66 89 121 117 103 150 151 144 142 140 139 142 139 139 140 133 139 135 156 154 153 155 175 226 294 305 327 327 333 342 345
268 187 191 239 218 248 89 239 282 342 277 197 226 212 177 158 145 184 145 146 143 146 148 147 149 153 150 143 146 140 156 165 157 168 203 258 293 319 330 335 347 5 16 33
290 268 243 249 258 261 160 236 303 260 252 115 104 68 321 169 187 150 145 144 146 147 146 147 151 152 158 160 161 157 158 152 174 219 233 263 337 9 347 355 51 38 26 350
243 227 227 51 336 263 17 49 158 226 305 191 169 164 133 137 141 144 146 142 142 143 146 156 156 152 158 164 164 177 170 165 194 208 211 359 14 357 4 77 60 47 19 39
258 201 207 194 236 232 265 266 290 293 309 314 195 166 153 146 144 146 146 144 141 142 145 153 158 156 159 159 172 183 175 193 200 218 255 128 46 16 116 75 42 49 25 46
324 22 236 97 321 316 308 274 268 276 284 279 329 226 178 153 150 147 148 146 146 152 148 149 150 169 165 180 191 209 197 208 219 198 183 149 266 34 103 123 75 339 347 17
256 352 321 270 298 323 330 340 14 335 256 311 247 343 171 153 155 157 154 153 155 159 158 167 172 177 175 188 187 201 215 211 209 204 178 170 192 90 183 278 356 344 348 334
190 220 195 229 309 228 254 272 319 316 301 280 202 172 194 178 157 160 158 164 165 162 163 165 175 171 166 174 161 165 184 212 208 172 159 178 184 220 292 273 280 321 334 346
Wind_Speed_850mb
29 4 12 25 22 22 14 14 18 3 13 15 15 35 34 51 56 56 63 66 59 53 47 30 22 20 18 17 21 21 27 27 23 24 18 12 11 4 9 13 18 22 22 21
11 18 26 22 22 22 20 16 13 6 13 12 10 6 21 36 42 69 67 72 73 65 50 39 26 17 14 16 20 27 29 27 23 19 20 20 12 12 9 19 27 27 29 28
19 24 29 25 21 21 13 6 13 7 7 8 9 8 14 25 53 57 70 79 85 74 61 43 33 23 14 14 17 26 30 25 27 32 34 30 27 17 4 16 21 27 30 32
17 40 23 10 7 9 11 14 17 21 5 4 11 9 15 18 26 24 44 67 79 69 56 49 39 27 19 16 17 26 30 27 24 24 27 23 18 10 4 12 17 24 30 35
20 15 9 2 10 13 18 14 7 17 1 9 18 6 17 11 14 20 36 64 81 69 64 56 46 36 28 22 22 27 29 28 29 28 22 16 15 14 12 20 13 17 27 32
28 31 8 13 14 9 7 13 15 12 8 9 16 8 23 12 18 16 30 71 80 79 66 56 46 42 34 24 26 31 32 33 30 27 26 17 14 16 16 18 13 7 18 24
18 14 5 8 6 8 16 14 8 8 5 14 19 9 33 2 17 10 30 64 78 81 70 64 60 51 40 37 26 34 34 32 29 26 25 23 20 17 12 14 16 7 9 19
10 16 19 16 14 10 7 16 10 10 6 8 16 10 4 18 39 45 26 51 72 78 72 69 65 55 50 42 28 33 32 27 24 23 23 21 17 16 12 5 8 5 4 11
7 13 25 21 11 8 12 6 17 2 8 7 6 6 14 19 19 30 29 39 65 63 67 68 62 54 53 45 33 30 27 22 17 15 14 14 15 10 2 11 5 6 14 18
14 6 11 10 13 4 6 2 10 8 2 8 10 9 7 11 15 16 19 18 48 65 71 70 64 54 53 49 38 29 23 21 16 11 8 12 13 11 4 7 13 15 17 22
8 11 18 10 5 9 8 4 1 8 8 6 2 10 12 11 17 19 28 36 47 61 66 69 64 59 61 57 52 42 35 31 25 16 9 8 2 2 4 12 10 14 23 32
18 12 9 14 12 7 17 19 16 10 14 6 9 12 6 16 22 36 30 36 41 42 45 58 65 66 66 58 46 33 41 35 25 17 18 17 14 19 18 18 20 24 31 38
6 3 3 15 15 13 6 7 11 7 9 11 8 11 9 16 14 28 30 36 46 48 46 46 61 70 59 51 51 42 40 35 28 27 27 27 29 29 26 24 24 27 33 29
12 4 12 14 15 11 8 12 5 3 5 10 13 15 15 12 17 23 26 18 21 48 49 42 65 64 56 50 51 49 41 48 42 46 47 40 32 24 22 18 20 20 27 31
12 7 3 10 14 20 25 21 19 25 19 17 21 17 16 15 16 34 41 37 27 46 44 39 54 57 48 43 48 52 40 33 32 37 32 30 21 15 9 14 25 25 24 26
1 8 12 10 17 25 34 34 31 39 25 23 31 20 21 33 12 23 44 44 36 60 56 51 44 37 43 45 44 37 37 31 25 20 13 4 4 13 15 17 19 18 27 37
6 8 4 9 14 22 35 25 30 34 22 7 9 11 8 13 5 33 36 42 72 69 64 67 62 55 50 48 46 39 31 24 12 6 11 12 7 5 12 15 22 25 33 36
11 10 10 8 8 27 10 8 14 16 19 10 9 2 5 8 21 35 40 64 76 71 65 62 56 49 46 41 33 28 21 19 15 17 16 8 8 7 16 19 30 39 35 29
12 10 8 12 15 34 21 9 13 7 28 11 5 3 10 27 31 23 40 59 71 66 61 64 60 55 48 37 34 31 30 25 23 18 16 6 4 9 17 29 25 27 29 25
18 10 9 6 13 40 4 14 25 13 24 10 13 8 17 22 9 8 64 71 68 62 67 69 62 54 44 43 31 20 19 21 23 15 10 5 10 16 23 24 19 19 19 21
9 13 20 20 15 26 9 0 25 15 14 9 8 3 9 9 20 69 77 74 73 70 66 60 52 44 34 34 27 25 22 24 15 10 9 5 14 11 13 19 13 19 19 24
18 9 13 4 6 30 8 12 10 4 30 22 22 16 34 49 73 86 83 79 72 65 55 46 45 40 32 25 28 27 28 21 14 12 7 5 8 11 8 15 17 14 25 23
21 13 11 21 18 25 44 29 57 28 25 34 22 27 50 75 84 84 80 75 68 56 54 47 44 34 26 31 28 29 22 16 15 10 2 3 4 9 10 9 14 13 25 35
11 19 2 7 9 15 32 47 29 33 17 18 35 19 57 80 87 83 80 74 67 57 50 43 33 25 31 29 27 26 24 19 14 10 2 8 2 5 11 6 4 13 18 23
10 18 9 9 10 14 28 31 15 13 19 9 14 47 44 83 82 87 83 76 67 64 49 34 28 36 38 26 21 16 15 13 13 12 6 11 9 2 2 4 9 14 20 20
11 7 4 7 15 16 18 19 23 24 26 27 24 8 36 68 80 83 76 70 70 62 52 43 41 39 27 22 21 21 17 12 8 16 16 11 15 5 6 5 9 12 16 24
Wind_Direction_850mb
250 195 238 241 246 243 269 279 270 356 116 135 153 146 172 173 164 162 166 160 160 165 162 166 169 193 196 183 178 167 163 167 180 181 181 144 109 59 29 2 12 7 5 360
298 224 237 237 250 254 267 276 291 39 117 107 95 135 197 178 177 173 171 165 162 155 157 168 182 201 201 182 174 162 165 170 173 181 157 136 109 80 19 12 12 23 18 18
215 244 229 242 258 261 270 298 298 240 125 94 118 311 264 188 187 185 180 170 167 165 159 162 165 180 208 193 178 167 168 166 143 135 130 146 138 136 63 357 18 25 19 20
233 246 263 152 316 347 321 292 317 288 62 211 118 259 275 199 193 183 181 155 159 159 163 165 172 179 195 201 179 163 165 165 151 140 147 157 164 187 137 61 40 20 12 17
261 250 174 153 263 262 249 255 328 256 178 55 305 86 263 245 189 190 176 151 160 166 166 167 173 179 190 207 191 166 157 153 143 150 154 148 140 116 110 93 73 7 358 6
288 277 223 182 235 223 78 42 358 18 61 6 254 195 277 247 195 155 161 149 161 166 166 167 172 174 180 199 183 169 159 153 146 145 147 145 105 100 110 124 110 10 342 355
286 263 294 291 2 112 84 57 353 348 355 229 263 238 237 175 104 149 166 151 157 164 163 163 170 173 179 189 190 172 165 157 149 139 131 129 131 139 118 117 157 170 317 345
266 292 197 201 177 182 182 150 161 223 225 257 337 291 289 88 71 62 158 171 151 162 165 170 172 173 180 192 197 185 176 168 154 142 138 135 126 136 150 158 153 149 296 336
277 290 321 188 135 151 263 176 211 180 274 39 247 21 27 73 80 83 77 110 151 164 170 172 173 175 182 194 206 203 192 179 169 151 146 154 158 188 176 134 105 317 338 353
231 313 316 114 136 188 107 247 22 357 162 280 283 285 178 115 130 121 127 139 167 170 175 176 176 180 185 196 198 206 211 195 193 183 161 149 176 203 302 357 353 355 342 325
153 119 285 14 133 167 324 285 241 152 147 174 314 280 200 161 167 162 171 171 162 166 175 179 182 185 186 193 199 207 206 215 208 206 196 214 286 105 298 309 298 309 315 310
185 152 221 228 287 308 204 205 179 138 274 226 180 258 146 155 171 163 172 169 176 178 177 188 186 183 186 193 201 214 208 214 211 218 215 219 214 209 236 260 283 288 299 307
7 164 131 330 340 331 241 231 203 163 130 199 195 256 225 170 138 168 179 180 187 190 189 193 187 185 186 190 195 194 191 206 229 216 201 188 192 208 225 253 274 296 309 317
71 30 152 192 211 229 275 266 297 196 152 235 232 249 273 237 186 196 166 172 158 192 191 190 174 176 183 185 180 191 187 203 199 203 198 200 204 216 241 263 298 321 334 331
118 186 270 266 271 277 274 272 268 238 219 233 255 245 233 241 220 214 186 176 156 156 159 154 149 158 164 166 162 166 184 200 189 177 179 184 196 226 272 332 346 337 347 342
258 230 199 257 268 273 274 283 284 283 278 227 235 246 243 256 280 218 180 179 146 118 116 122 123 137 147 153 164 172 160 174 178 187 191 186 359 9 4 339 334 336 325 326
201 166 179 249 234 263 257 235 252 272 278 251 265 247 59 21 147 140 132 134 121 125 127 121 118 123 124 134 147 151 154 159 177 170 114 115 68 313 326 323 322 327 332 332
209 187 176 220 235 253 211 217 275 269 280 240 257 247 61 30 117 135 144 140 129 131 131 129 128 126 132 138 139 153 153 141 137 122 136 163 255 299 309 310 324 328 339 338
185 193 214 215 225 256 262 279 236 232 282 249 181 66 89 121 117 103 150 151 144 142 140 139 142 139 139 140 133 139 135 156 154 153 155 175 226 294 305 327 327 333 342 345
268 187 191 239 218 248 89 239 282 342 277 197 226 212 177 158 145 184 145 146 143 146 148 147 149 153 150 143 146 140 156 165 157 168 203 258 293 319 330 335 347 5 16 33
290 268 243 249 258 261 160 236 303 260 252 115 104 68 321 169 187 150 145 144 146 147 146 147 151 152 158 160 161 157 158 152 174 219 233 263 337 9 347 355 51 38 26 350
243 227 227 51 336 263 17 49 158 226 305 191 169 164 133 137 141 144 146 142 142 143 146 156 156 152 158 164 164 177 170 165 194 208 211 359 14 357 4 77 60 47 19 39
258 201 207 194 236 232 265 266 290 293 309 314 195 166 153 146 144 146 146 144 141 142 145 153 158 156 159 159 172 183 175 193 200 218 255 128 46 16 116 75 42 49 25 46
324 22 236 97 321 316 308 274 268 276 284 279 329 226 178 153 150 147 148 146 146 152 148 149 150 169 165 180 191 209 197 208 219 198 183 149 266 34 103 123 75 339 347 17
256 352 321 270 298 323 330 340 14 335 256 311 247 343 171 153 155 157 154 153 155 159 158 167 172 177 175 188 187 201 215 211 209 204 178 170 192 90 183 278 356 344 348 334
190 220 195 229 309 228 254 272 319 316 301 280 202 172 194 178 157 160 158 164 165 162 163 165 175 171 166 174 161 165 184 212 208 172 159 178 184 220 292 273 280 321 334 346